User: anonymous   Login
Location: Oshawa
(43.9000°N, 78.8670°W)
Time: 01:08:16
(UTC-05:00)
Language:

Thor Agena Rocket - Orbit

View from above orbital plane
View from above orbital plane
View from above satellite
View from above satellite

Ground track
Ground track

The orbit data is extracted from the following two-line orbital elements,

1 00733U 64002A   16338.55795254  .00000029  00000-0  28421-4 0  9990
2 00733  99.1147 147.9191 0034317  28.1814 332.1216 14.32246562754302
Epoch (UTC): 03 December 2016 13:23:27
Eccentricity: 0.0034317
inclination: 99.1147°
perigee height: 759 km
apogee height: 809 km
right ascension of ascending node: 147.9191°
argument of perigee: 28.1814°
revolutions per day: 14.32246562
mean anomaly at epoch: 332.1216°
orbit number at epoch: 75430

The dashed part of the orbit path shows where the satellite is in the earth's shadow,  

DLR